User: anonymous   Login
Location: Prague
(50.0830°N, 14.4670°E)
Time: 07:42:03
(UTC+01:00)
Language:

CAS-4A - Orbit

View from above orbital plane
View from above orbital plane
View from above satellite
View from above satellite

Ground track
Ground track

The orbit data is extracted from the following two-line orbital elements,

1 42761U 17034D   21341.80387740  .00001209  00000-0  84888-4 0  9995
2 42761  43.0187 306.7514 0007583 176.0514 260.6968 15.10686977247367
Epoch (UTC): 07 December 2021 19:17:35
Eccentricity: 0.0007583
inclination: 43.0187°
perigee height: 529 km
apogee height: 539 km
right ascension of ascending node: 306.7514°
argument of perigee: 176.0514°
revolutions per day: 15.10686977
mean anomaly at epoch: 260.6968°
orbit number at epoch: 24736

The dashed part of the orbit path shows where the satellite is in the earth's shadow,  

DLR